Western Head, Nova Scotia

3:14 PM AST on January 23, 2018 (GMT -0400)
Western Head

Weather History for CWWE - October, 2012

Change the Weather History Date:

Wednesday, October 10, 2012

  Actual Average Record
Temperature  
Mean Temperature 56 °F -  
Max Temperature 61 °F - - ()
Min Temperature 50 °F - - ()
Degree Days  
Heating Degree Days 10    
Growing Degree Days 6 (Base 50)    
Moisture  
Dew Point 53 °F    
Average Humidity 91    
Maximum Humidity 99    
Minimum Humidity 85    
Precipitation  
Precipitation 0.00 in - - ()
Sea Level Pressure  
Sea Level Pressure 30.04 in    
Wind  
Wind Speed 8 mph ()    
Max Wind Speed 16 mph    
Max Gust Speed 23 mph    
T = Trace of Precipitation, MM = Missing Value Source: Averaged Metar Reports

Daily Weather History Graph

Daily Weather History Graph

Search for Another Location

Airport or City:

Trip Planner

Search our weather history database for the weather conditions in past years. The results will help you decide how hot, cold, wet, or windy it might be!

Date:

Astronomy

Oct. 10, 2012 Rise Set
Actual Time 7:27 AM ADT 6:42 PM ADT
Civil Twilight 6:58 AM ADT 7:11 PM ADT
Nautical Twilight 6:25 AM ADT 7:44 PM ADT
Astronomical Twilight 5:51 AM ADT 8:18 PM ADT
Moon 1:49 AM ADT (10/10) 3:52 PM ADT (10/10)
Length of Visible Light 12h 12m
Length of Day
11h 15m
Waning Crescent, 28% of the Moon is Illuminated
Oct 10
Waning Crescent
Oct 15
New
Oct 22
First Quarter
Oct 29
Full
Nov 6
Last Quarter

Hourly Weather History & Observations

Time (ADT) Temp. Dew Point Humidity Pressure Visibility Wind Dir Wind Speed Gust Speed Precip Events Conditions
12:00 AM 50 °F 47 °F 86% 30.17 in - North 6.9 mph - -  
12:00 AM 50.2 °F 47.1 °F 89% 30.17 in - North 6.9 mph - N/A   Unknown
1:00 AM 50.9 °F 48.6 °F 92% 30.16 in - NNE 6.9 mph - N/A   Unknown
2:00 AM 50.9 °F 48.0 °F 90% 30.15 in - NNE 6.9 mph - N/A   Unknown
3:00 AM 51 °F 48 °F 87% 30.13 in - NNE 6.9 mph - -  
3:00 AM 51.3 °F 48.4 °F 90% 30.13 in - NNE 6.9 mph - N/A   Unknown
4:00 AM 51.6 °F 48.7 °F 90% 30.11 in - NNE 5.8 mph - N/A   Unknown
5:00 AM 51.6 °F 48.9 °F 90% 30.12 in - NNE 5.8 mph - N/A   Unknown
6:00 AM 52 °F 49 °F 87% 30.12 in - North 5.8 mph - -  
6:00 AM 52.0 °F 49.3 °F 90% 30.12 in - North 5.8 mph - N/A   Unknown
7:00 AM 52.5 °F 50.0 °F 91% 30.09 in - NE 8.1 mph - N/A   Unknown
8:00 AM 53.2 °F 50.7 °F 91% 30.11 in - NNE 5.8 mph - N/A   Unknown
9:00 AM 54 °F 51 °F 86% 30.10 in - NNE 4.6 mph - -  
9:00 AM 53.6 °F 51.1 °F 91% 30.10 in - NNE 4.6 mph - N/A   Unknown
10:00 AM 55.9 °F 53.4 °F 91% 30.09 in - NNE 5.8 mph - N/A   Unknown
11:00 AM 56.1 °F 54.1 °F 93% 30.08 in - NE 6.9 mph - N/A   Unknown
12:00 PM 59 °F 56 °F 85% 30.06 in - NE 5.8 mph - -  
12:00 PM 59.2 °F 55.8 °F 88% 30.06 in - NE 5.8 mph - N/A   Unknown
1:00 PM 60.4 °F 57.9 °F 91% 30.05 in - East 5.8 mph - N/A   Unknown
2:00 PM 60.4 °F 56.7 °F 87% 30.04 in - East 15.0 mph - N/A   Unknown
3:00 PM 59 °F 57 °F 92% 30.01 in - ESE 15.0 mph - -  
3:00 PM 59.2 °F 57.4 °F 94% 30.01 in - ESE 15.0 mph - N/A   Unknown
4:00 PM 58.5 °F 56.7 °F 94% 30.00 in - ESE 12.7 mph - N/A   Unknown
5:00 PM 57.7 °F 56.5 °F 96% 29.97 in - East 11.5 mph - N/A   Unknown
6:00 PM 58 °F 56 °F 91% 29.95 in - East 13.8 mph - -  
6:00 PM 58.1 °F 56.1 °F 93% 29.95 in - East 13.8 mph - N/A   Unknown
7:00 PM 58.3 °F 56.1 °F 93% 29.93 in - East 13.8 mph - N/A   Unknown
8:00 PM 57.7 °F 56.8 °F 97% 29.92 in - ESE 13.8 mph - N/A   Unknown
9:00 PM 58 °F 57 °F 97% 29.89 in - East 13.8 mph - -  
9:00 PM 57.9 °F 57.4 °F 98% 29.89 in - East 13.8 mph - N/A   Unknown
10:00 PM 58.1 °F 57.6 °F 98% 29.86 in - ESE 16.1 mph - N/A   Unknown
11:00 PM 58.5 °F 58.1 °F 99% 29.82 in - ESE 16.1 mph 23.0 mph N/A   Unknown